• MPC Preparation (Info)

  • MPEC 2007-W25 : 2007 WM3

    The following Minor Planet Electronic Circular may be linked-to from your own Web pages, but must not otherwise be redistributed electronically.

    A form allowing access to any MPEC is at the bottom of this page.


    Read MPEC 2007-W24 Read MPEC 2007-W26


    M.P.E.C. 2007-W25                                Issued 2007 Nov. 19, 12:24 UT
    
         The Minor Planet Electronic Circulars contain information on unusual
             minor planets and routine data on comets.  They are published
       on behalf of Commission 20 of the International Astronomical Union by the
              Minor Planet Center, Smithsonian Astrophysical Observatory,
                              Cambridge, MA 02138, U.S.A.
    
                 Prepared using the Tamkin Foundation Computer Network
    
                                  MPC@CFA.HARVARD.EDU
              URL http://www.cfa.harvard.edu/iau/mpc.html  ISSN 1523-6714
    
                                       2007 WM3
    
    Observations:
         K07W03M* C2007 11 17.25935 01 19 23.16 +02 19 13.0          19.0 V EW025703
         K07W03M  C2007 11 17.26854 01 19 19.95 +02 19 57.9          19.2 V EW025703
         K07W03M  C2007 11 17.27779 01 19 17.00 +02 20 45.2          18.2 V EW025703
         K07W03M  C2007 11 17.28699 01 19 13.94 +02 21 27.3          19.1 V EW025703
         K07W03M  C2007 11 17.31354 01 19 05.16 +02 23 36.3          19.2 V EW025703
         K07W03M  C2007 11 17.32266 01 19 02.17 +02 24 21.2          18.8 V EW025703
         K07W03M  C2007 11 17.33177 01 18 59.32 +02 25 04.5          18.8 V EW025703
         K07W03M  C2007 11 17.34089 01 18 56.44 +02 25 47.4          18.7 V EW025703
         K07W03M  C2007 11 17.93262 01 16 17.59 +03 10 52.1                 EW025204
         K07W03M  C2007 11 17.93873 01 16 15.82 +03 11 18.7          19.2 R EW025204
         K07W03M  C2007 11 18.07353 01 15 48.56 +03 21 22.5          19.5 V EW025G96
         K07W03M  C2007 11 18.07876 01 15 47.08 +03 21 45.0          19.3 V EW025G96
         K07W03M  C2007 11 18.08404 01 15 45.61 +03 22 07.6          19.2 V EW025G96
         K07W03M  C2007 11 18.08925 01 15 44.17 +03 22 29.8          19.3 V EW025G96
         K07W03M  C2007 11 18.15307 01 15 25.95 +03 27 02.2          19.3 V EW025G96
         K07W03M 5C2007 11 18.15544 01 15 25.97 +03 27 08.8          19.2 R EW025673
         K07W03M 5C2007 11 18.15810 01 15 25.18 +03 27 20.6                 EW025673
         K07W03M  C2007 11 18.15852 01 15 24.37 +03 27 25.1          19.1 V EW025G96
         K07W03M  C2007 11 18.16394 01 15 22.82 +03 27 47.9          19.1 V EW025G96
         K07W03M  C2007 11 18.16935 01 15 21.27 +03 28 10.7          19.1 V EW025G96
         K07W03M 5C2007 11 18.16944 01 15 21.95 +03 28 09.2                 EW025673
         K07W03M 5C2007 11 18.17604 01 15 20.06 +03 28 36.5                 EW025673
         K07W03M  C2007 11 18.18402 01 15 16.90 +03 29 15.1                 EW025701
         K07W03M  C2007 11 18.20624 01 15 10.58 +03 30 47.8                 EW025701
         K07W03M  C2007 11 18.22846 01 15 04.20 +03 32 20.9                 EW025701
         K07W03M  C2007 11 18.23886 01 15 01.30 +03 33 02.8          18.9 R EW025651
         K07W03M  C2007 11 18.23972 01 15 01.10 +03 33 06.4          19.1 R EW025651
         K07W03M  C2007 11 18.24145 01 15 00.58 +03 33 13.9          19.2 R EW025651
         K07W03M  C2007 11 18.25068 01 14 57.90 +03 33 52.4                 EW025701
         K07W03M  C2007 11 18.29676 01 14 45.16 +03 37 00.8          19.3 V EW025G96
         K07W03M  C2007 11 18.30483 01 14 42.97 +03 37 33.8          19.2 V EW025G96
         K07W03M  C2007 11 18.31289 01 14 40.74 +03 38 06.9          19.0 V EW025G96
         K07W03M  C2007 11 18.32096 01 14 38.54 +03 38 40.0          19.2 V EW025G96
         K07W03M  C2007 11 18.42454 01 14 18.26 +03 48 00.9          18.2 R EW025474
         K07W03M  C2007 11 18.42581 01 14 17.92 +03 48 07.8                 EW025474
         K07W03M  C2007 11 18.42697 01 14 17.61 +03 48 11.4          18.1 R EW025474
         K07W03M  C2007 11 18.43333 01 14 15.84 +03 48 36.6          18.4 R EW025474
         K07W03M  C2007 11 18.73037 01 13 12.09 +04 05 22.2          18.8 V EW025A17
         K07W03M  C2007 11 18.74137 01 13 09.46 +04 06 03.0          19.0 V EW025A17
         K07W03M  C2007 11 18.75309 01 13 06.63 +04 06 48.7          18.6 V EW025A17
         K07W03M  C2007 11 19.08722 01 11 55.57 +04 28 04.9          18.8 V EW025G96
         K07W03M  C2007 11 19.08904 01 11 55.14 +04 28 11.6          18.6 V EW025G96
         K07W03M  C2007 11 19.09086 01 11 54.67 +04 28 18.4          19.2 V EW025G96
         K07W03M  C2007 11 19.09267 01 11 54.24 +04 28 24.9          18.9 V EW025G96
         K07W03M  C2007 11 19.10590 01 11 51.07 +04 29 13.4          18.8 V EW025G96
         K07W03M  C2007 11 19.10771 01 11 50.64 +04 29 20.3          18.7 V EW025G96
         K07W03M  C2007 11 19.10954 01 11 50.20 +04 29 27.0          19.4 V EW025G96
         K07W03M  C2007 11 19.11134 01 11 49.77 +04 29 33.1          18.9 V EW025G96
         K07W03M 5C2007 11 19.14271 01 11 42.88 +04 31 23.8          19.3 R EW025673
         K07W03M 5C2007 11 19.15046 01 11 41.07 +04 31 51.8                 EW025673
         K07W03M 5C2007 11 19.15590 01 11 39.69 +04 32 12.1                 EW025673
         K07W03M  C2007 11 19.15916 01 11 38.23 +04 32 27.2          18.9 V EW025G96
         K07W03M 5C2007 11 19.16053 01 11 38.55 +04 32 29.3                 EW025673
         K07W03M  C2007 11 19.16097 01 11 37.77 +04 32 33.8          19.0 V EW025G96
         K07W03M  C2007 11 19.16278 01 11 37.34 +04 32 40.2          19.0 V EW025G96
         K07W03M  C2007 11 19.16459 01 11 36.90 +04 32 46.8          18.8 V EW025G96
         K07W03M  C2007 11 19.16874 01 11 35.89 +04 33 01.8          19.0 V EW025G96
         K07W03M  C2007 11 19.17058 01 11 35.44 +04 33 08.6          18.8 V EW025G96
         K07W03M  C2007 11 19.17241 01 11 35.00 +04 33 15.1          18.9 V EW025G96
         K07W03M  C2007 11 19.17421 01 11 34.56 +04 33 21.5          19.1 V EW025G96
         K07W03M  C2007 11 19.43507 01 10 40.84 +04 50 48.4          19.0 R EW025474
         K07W03M  C2007 11 19.43762 01 10 40.25 +04 50 57.7          19.0 R EW025474
         K07W03M  C2007 11 19.44167 01 10 39.34 +04 51 11.7          18.9 R EW025474
    
    Observer details:
    204 Schiaparelli Observatory.  Observers L. Buzzi, F. Luppi.  Measurer
        L. Buzzi.  0.60-m f/4.64 reflector + CCD.
    474 Mount John Observatory, Lake Tekapo.  Observer A. C. Gilmore.  1.0-m f/7.7
        reflector + CCD.
    651 Grasslands Observatory, Tucson.  Observer J. E. McGaha.  0.62-m f/5.1
        Newtonian reflector + CCD.
    673 Table Mountain Observatory, Wrightwood.  Observer J. Young.  0.61-m f/16
        Cassegrain + CCD.
    701 Junk Bond Observatory, Sierra Vista.  Observer D. Healy.  0.81-m f/4.4
        Ritchey-Chretien + CCD.
    703 Catalina Sky Survey.  Observer R. A. Kowalski.  Measurers E. C. Beshore,
        A. Boattini, G. J. Garradd, A. R. Gibbs, A. D. Grauer, R. E. Hill,
        R. A. Kowalski, S. M. Larson, R. H. McNaught.  0.68-m Schmidt + CCD.
    A17 Guidestar Observatory, Weinheim.  Observers M. Emmerich, S. Melchert.
        0.36-m f/6 Schmidt-Cassegrain + CCD.
    G96 Mt. Lemmon Survey.  Observer A. D. Grauer.  Measurers E. C. Beshore,
        A. Boattini, G. J. Garradd, A. R. Gibbs, A. D. Grauer, R. E. Hill,
        R. A. Kowalski, S. M. Larson, R. H. McNaught.  1.5-m reflector + CCD.
    
    Orbital elements:
    2007 WM3                                                 Earth MOID = 0.0226 AU
    Epoch 2007 Oct. 27.0 TT = JDT 2454400.5                 MPC
    M  91.74766              (2000.0)            P               Q
    n   1.39260421     Peri.  204.02591     -0.18252144     +0.97884851
    a   0.7941775      Node    55.58063     -0.88295409     -0.12183398
    e   0.4283780      Incl.    6.43265     -0.43252515     -0.16435353
    P   0.71           H   23.1           G   0.15           U   8
    Residuals in seconds of arc
    071117 703  0.1+  0.3+    071118 673  0.0   0.9+    071119 G96  0.4-  0.1+
    071117 703  1.7-  0.2+    071118 701  1.2-  0.6+    071119 G96  0.4-  0.0
    071117 703  0.5+  2.3+    071118 701  0.2-  0.1+    071119 G96  0.4-  0.0
    071117 703  0.5+  0.5-    071118 701  0.5-  0.5+    071119 G96  0.3-  0.3+
    071117 703  0.1-  0.5-    071118 651  0.3-  0.5-    071119 G96  0.4-  0.3+
    071117 703  0.5-  0.2+    071118 651  0.4+  0.5-    071119 G96  0.3-  0.2-
    071117 703  0.8+  0.5-    071118 651  0.1-  0.2-    071119 673  0.8+  0.3-
    071117 703  1.4+  1.6-    071118 701  0.4-  0.3-    071119 673  1.6+  0.4-
    071117 204  0.3-  0.0     071118 G96  0.1-  0.1-    071119 673  0.5+  0.2+
    071117 204  0.3-  0.0     071118 G96  0.2+  0.2-    071119 G96  0.1+  0.1+
    071118 G96  0.3-  0.2-    071118 G96  0.4-  0.1-    071119 673  0.1+  0.6+
    071118 G96  0.5-  0.2-    071118 G96  0.6-  0.1+    071119 G96  0.2-  0.1+
    071118 G96  0.2-  0.3-    071118 474  0.5+  0.8-    071119 G96  0.1-  0.0
    071118 G96  0.2+  0.4-    071118 474  0.6+  0.9+    071119 G96  0.1-  0.0
    071118 G96  0.2+  0.0     071118 474  0.6+  0.1-    071119 G96  0.1-  0.0
    071118 673  0.5+  0.2+    071118 474  0.2-  0.5-    071119 G96  0.2-  0.2+
    071118 673  0.0   0.8+    071118 A17  0.2-  0.5+    071119 G96  0.1-  0.1+
    071118 G96  0.0   0.2-    071118 A17  0.4+  1.3-    071119 G96  0.2-  0.0
    071118 G96  0.1+  0.3-    071118 A17  0.9+  0.9-    071119 474  0.0   0.3-
    071118 G96  0.2+  0.3-    071119 G96  0.1+  0.0     071119 474  0.2-  0.2+
    071118 673  0.1+  1.4+    071119 G96  0.2+  0.0     071119 474  0.0   0.3+
    
    Ephemeris:
    2007 WM3                 a,e,i = 0.79, 0.43, 6                   q = 0.4540
    Date    TT    R. A. (2000) Decl.     Delta      r     Elong.  Phase     V
    2007 11 16    01 26.48   +00 24.5    0.0618   1.041   146.1    32.0    18.5
    2007 11 18    01 16.04   +03 17.0    0.0745   1.049   143.4    34.2    19.0
    2007 11 20    01 08.94   +05 20.7    0.0876   1.057   140.7    36.3    19.4
    2007 11 22    01 03.97   +06 53.9    0.101    1.065   138.2    38.2    19.8
    2007 11 24    01 00.44   +08 07.0    0.114    1.072   135.8    39.9    20.1
    2007 11 26    00 57.96   +09 06.3    0.128    1.079   133.6    41.5    20.4
    2007 11 28    00 56.25   +09 55.7    0.142    1.086   131.4    43.0    20.7
    2007 11 30    00 55.15   +10 38.0    0.156    1.092   129.4    44.3    21.0
    2007 12 02    00 54.54   +11 15.0    0.169    1.097   127.4    45.5    21.2
    2007 12 04    00 54.33   +11 48.0    0.183    1.102   125.6    46.7    21.4
    2007 12 06    00 54.48   +12 17.8    0.197    1.107   123.7    47.7    21.6
    2007 12 08    00 54.92   +12 45.3    0.212    1.112   122.0    48.7    21.8
    2007 12 10    00 55.62   +13 10.9    0.226    1.116   120.3    49.7    22.0
    2007 12 12    00 56.55   +13 35.0    0.240    1.119   118.6    50.6    22.1
    2007 12 14    00 57.68   +13 58.0    0.254    1.123   117.0    51.4    22.3
    2007 12 16    00 59.00   +14 20.0    0.268    1.125   115.4    52.2    22.4
    
    Timothy B. Spahr             (C) Copyright 2007 MPC           M.P.E.C. 2007-W25
    

    Read MPEC 2007-W24 Read MPEC 2007-W26


    MPEC number:

    Enter an MPEC number in one of the following forms:

    • 1997-B01 (the full form)
    • J97B01 (the packed version of the full form)
    • B01 (the abbreviated form)